Location: Lac de la Montagne noire
(46.1952°N, 74.2701°W)
Time: 19:37:42
(UTC-04:00)

Envisat - Visible Passes

Search period start: 19 March 2019 00:00
Search period end: 29 March 2019 00:00
Orbit: 764 x 766 km, 98.2° (Epoch: 19 March)

Date Brightness Start Highest point End Pass type
(mag) Time Alt. Az. Time Alt. Az. Time Alt. Az.
19 Mar 3.8 19:51:44 10° S 19:56:43 55° W 20:01:43 10° NNW visible
20 Mar 5.9 20:56:28 10° SW 20:59:29 16° W 21:02:33 10° NW visible
21 Mar 4.9 20:17:50 10° SSW 20:22:23 33° W 20:26:57 10° NNW visible
22 Mar 3.4 19:40:25 10° S 19:45:28 69° WSW 19:50:33 10° NNW visible
23 Mar 5.7 20:44:30 10° SW 20:48:09 20° W 20:51:49 10° NW visible
24 Mar 4.5 20:06:20 10° SSW 20:11:05 41° W 20:15:54 10° NNW visible
25 Mar 6.2 21:12:28 10° WSW 21:14:01 11° W 21:15:36 10° WNW visible
26 Mar 5.4 20:32:43 10° SSW 20:36:49 24° W 20:40:57 10° NW visible
27 Mar 4.0 19:54:54 10° S 19:59:49 51° W 20:04:47 10° NNW visible
28 Mar 5.9 20:59:56 10° WSW 21:02:39 14° W 21:05:24 10° NW visible
